STARLINK-37630, 69301

Orbit data source: Space-Track

STARLINK-37630, 69301 is a payload satellite owned by SpaceX/Seattle (US) in SSO that was launched on Sat, 30 May 2026 UTC via an FALCON 9 launch vehicle from the Air Force Western Test Range (AFWTR). Payload-class satellites include a variety of spacecraft equipped with specific instruments for various scientific and technological missions. These include communications satellites like Starlink; space stations such as the ISS; scientific satellites like the Hubble; Earth observation satellites from companies like Planet Labs, Umbra, and HawkEye 360; GPS; miniature CubeSats for education and research; and military/defense satellites.

Loading next visibility...
Identifier
69301, 2026-119F
Orbit
SSO
Country
Flag of USUS
Related business
Manufacturer
SpaceX/Seattle
Mission
Operational spacecraft
Bus & Motor
STARLINK V2MO, Unknown motor
Mass
575 kg wet, ~530 kg dry
Launch date (UTC)
2026-05-30 (2 months ago)
Launch vehicle
FALCON 9
Launch site
Air Force Western Test Range (AFWTR)
Object type
Payload
Rocket body
Debris
Shape & HBR
BOX + PAN, 17.7 m
Radar Cross Section
Large (>1 m²)

Expand to show TLE details & history
Last TLE update: 16 hours ago

TLE from 16 hours ago
0 STARLINK-37630
1 69301U 26119F   26206.35326392  .00014791  00000-0  45943-3 0  9997
2 69301  97.2860 231.8744 0001954 103.7681 256.3780 15.33454563  9905
Epoch: 2026-07-25T08:28Z
TLE epoch observation values (Epoch: 2026-07-25T08:28:42.002Z)
Latitude
0.00003°
Longitude
161.63262°
Altitude
468.942 km
Speed
7.632 km/s
True Right ascension
15h 27m 29s
True Declination
0° 00' 00"
Sunlit
Object was in daylight at epoch
Visualization orbit readout
Latitude
Unknown
Longitude
Unknown
Altitude
Unknown
Speed
Unknown
Apparent Right ascension
Unknown
Apparent Declination
Unknown
Sunlit
N/A
Visualization observer readout
Local Sidereal Time
13:35:39
Azimuth
Unknown
Elevation
Unknown
Doppler factor
Unknown
Orbital elements
Apogee altitude
463.794 km
Perigee altitude
461.121 km
Semi-major axis
6,840.595 km
Eccentricity
0.0002
Inclination
97.286°
RAAN
231.8744°
Arg. of periapsis
103.7681°
True anomaly
256.35624°
Mean anomaly
256.378°
Eccentric anomaly
256.36712°
Mean motion
3.83621 °/min
Orbital period
93.84 mins
BSTAR
0.00045943
Loading maneuver chart data...
Computing Atmospheric mass density...
Loading historical data...
Loading historical data...
Loading historical data...
Loading historical data...
Loading historical data...
Loading historical data...
Loading historical data...

Documentation

Showing up to 5 results
|